Glendale Luke AFB, AZ

10:03 AM MST on December 12, 2019 (GMT -0700)
Luke Air Force Base

Weather History for KLUF - October, 2019

Change the Weather History Date:

Tuesday, October 22, 2019

  Actual Average Record
Temperature  
Mean Temperature 73 °F -  
Max Temperature 88 °F 87 °F 96 °F (1939)
Min Temperature 58 °F 52 °F 33 °F (1928)
Cooling Degree Days 8    
Growing Degree Days 23 (Base 50)    
Moisture  
Dew Point 29 °F    
Average Humidity 21    
Maximum Humidity 32    
Minimum Humidity 9    
Precipitation  
Precipitation 0.00 in - - ()
Sea Level Pressure  
Sea Level Pressure 29.99 in    
Wind  
Wind Speed 5 mph (NE)    
Max Wind Speed 8 mph    
Max Gust Speed -    
Visibility 10 miles    
Events      
Averages and records for this station are not official NWS values.
T = Trace of Precipitation, MM = Missing Value Source: NWS Daily Summary

Daily Weather History Graph

Daily Weather History Graph

Search for Another Location

Airport or City:

Astronomy

Oct. 22, 2019 Rise Set
Actual Time 6:39 AM MST 5:47 PM MST
Civil Twilight 6:14 AM MST 6:13 PM MST
Nautical Twilight 5:45 AM MST 6:42 PM MST
Astronomical Twilight 5:16 AM MST 7:10 PM MST
Moon 12:17 AM MST (10/22) 2:37 PM MST (10/22)
Length of Visible Light 11h 58m
Length of Day
11h 08m
Last Quarter, 36% of the Moon is Illuminated
Oct 22
Last Quarter
Oct 27
New
Nov 4
First Quarter
Nov 12
Full
Nov 19
Last Quarter

Hourly Weather History & Observations

Time (MST) Temp. Dew Point Humidity Pressure Visibility Wind Dir Wind Speed Gust Speed Precip Events Conditions
12:58 AM 67.1 °F 24.6 °F 20% 30.01 in 10.0 mi East 8.1 mph - N/A   Clear
1:58 AM 61.9 °F 28.4 °F 28% 30.03 in 10.0 mi NE 4.6 mph - N/A   Clear
2:58 AM 61.0 °F 29.3 °F 30% 30.03 in 10.0 mi NNE 5.8 mph - N/A   Clear
3:58 AM 60.8 °F 27.5 °F 28% 30.03 in 10.0 mi North 8.1 mph - N/A   Clear
4:58 AM 60.3 °F 27.9 °F 29% 30.04 in 10.0 mi NW 4.6 mph - N/A   Clear
5:58 AM 58.6 °F 28.9 °F 32% 30.05 in 10.0 mi NNE 3.5 mph - N/A   Clear
6:58 AM 59.0 °F 28.4 °F 31% 30.06 in 10.0 mi Calm Calm - N/A   Clear
7:58 AM 64.9 °F 31.1 °F 28% 30.08 in 10.0 mi South 3.5 mph - N/A   Clear
8:58 AM 72.0 °F 28.8 °F 20% 30.10 in 10.0 mi ESE 3.5 mph - N/A   Clear
9:58 AM 78.1 °F 29.7 °F 17% 30.08 in 10.0 mi SE 4.6 mph - N/A   Clear
10:59 AM 82.9 °F 28.8 °F 14% 30.06 in 10.0 mi ENE 4.6 mph - N/A   Clear
11:58 AM 85.1 °F 24.6 °F 11% 30.04 in 10.0 mi East 4.6 mph - N/A   Clear
12:58 PM 86.9 °F 23.7 °F 10% 30.00 in 10.0 mi Calm Calm - N/A   Clear
1:59 PM 87.1 °F 23.9 °F 10% 29.96 in 10.0 mi NNW 4.6 mph - N/A   Clear
2:58 PM 87.4 °F 24.1 °F 10% 29.94 in 10.0 mi SW 4.6 mph - N/A   Clear
3:58 PM 88.9 °F 22.6 °F 9% 29.92 in 10.0 mi Calm Calm - N/A   Clear
4:58 PM 87.6 °F 24.3 °F 10% 29.91 in 10.0 mi West 3.5 mph - N/A   Clear
5:58 PM 82.9 °F 30.6 °F 15% 29.91 in 10.0 mi SW 8.1 mph - N/A   Clear
6:58 PM 77.4 °F 35.6 °F 22% 29.91 in 10.0 mi WSW 4.6 mph - N/A   Clear
7:58 PM 72.9 °F 36.0 °F 26% 29.91 in 10.0 mi Calm Calm - N/A   Clear
8:59 PM 70.3 °F 36.5 °F 29% 29.91 in 10.0 mi NNE 3.5 mph - N/A   Clear
9:58 PM 72.0 °F 34.2 °F 25% 29.91 in 10.0 mi South 4.6 mph - N/A   Clear
10:58 PM 70.2 °F 34.5 °F 27% 29.89 in 10.0 mi Calm Calm - N/A   Clear
11:59 PM 68.2 °F 32.9 °F 27% 29.89 in 10.0 mi Calm Calm - N/A   Clear